N1LTP Weather Reports


Display with metric or nautical units.
time (UTC)temp
F
wind
direction
speed
MPH
gust
MPH
rain 1hr
in
rain 24hr
in
rain mn
in
humidity
%
barometer
mb
20260503040003 48 55 0.0 3.0 0.00 0.00 0.00 91 1009.6
20260503034600 48 59 0.0 0.0 0.00 0.00 0.00 91 1009.4
20260503033058 48 59 0.0 2.0 0.00 0.00 0.00 91 1009.5
20260503031606 48 79 0.0 1.0 0.00 0.00 0.00 91 1009.6
20260503030058 48 79 0.0 0.0 0.00 0.00 0.00 90 1009.4
20260503024556 48 79 0.0 0.0 0.00 0.00 0.00 90 1009.6
20260503023055 48 79 0.0 0.0 0.00 0.00 0.00 89 1009.8
20260503021554 49 79 0.0 0.0 0.00 0.00 0.00 89 1009.6
20260503020055 49 79 0.0 0.0 0.00 0.00 0.00 89 1009.8
20260503014608 49 79 0.0 0.0 0.00 0.00 0.00 89 1010.0
20260503013053 49 79 0.0 0.0 0.00 0.00 0.00 88 1010.0
20260503011557 49 79 0.0 0.0 0.00 0.00 0.00 88 1009.9
20260503010052 49 80 0.0 0.0 0.00 0.00 0.00 88 1009.9
20260503004552 49 80 0.0 0.0 0.00 0.00 0.00 88 1009.9
20260503003051 50 80 0.0 0.0 0.00 0.00 0.00 87 1009.7
20260503001601 50 80 0.0 0.0 0.00 0.00 0.00 87 1009.7
20260503000050 50 80 0.0 0.0 0.00 0.00 0.00 86 1009.7
20260502234552 50 80 0.0 0.0 0.00 0.00 0.00 85 1009.7
20260502233053 50 80 0.0 0.0 0.00 0.00 0.00 85 1009.8
20260502231548 50 80 0.0 0.0 0.00 0.00 0.00 84 1009.8
20260502230047 51 80 0.0 1.0 0.00 0.00 0.00 84 1009.9
20260502224547 51 26 0.0 2.0 0.00 0.00 0.00 84 1009.9
20260502223046 51 26 0.0 2.0 0.00 0.00 0.00 84 1009.7
20260502221545 51 103 0.0 2.0 0.00 0.00 0.00 82 1009.6
20260502220045 52 103 0.0 1.0 0.00 0.00 0.00 82 1009.6
20260502214544 52 105 0.0 1.0 0.00 0.00 0.00 82 1009.6
20260502213043 52 105 0.0 2.0 0.00 0.00 0.00 81 1009.7
20260502211544 52 106 0.0 3.0 0.00 0.00 0.00 80 1009.7
20260502210058 52 124 0.0 4.0 0.00 0.00 0.00 79 1009.6
20260502204547 52 17 1.0 3.0 0.00 0.00 0.00 78 1009.6
20260502203040 53 151 0.0 6.0 0.00 0.00 0.00 79 1009.8
20260502201549 53 152 2.0 6.0 0.00 0.00 0.00 79 1009.7
20260502200039 53 121 1.0 4.0 0.00 0.00 0.00 79 1009.9
20260502194536 53 172 0.0 7.0 0.00 0.00 0.00 78 1010.2
20260502193035 53 138 1.0 6.0 0.00 0.00 0.00 77 1010.4
20260502191544 53 248 2.0 7.0 0.00 0.00 0.00 73 1010.6
20260502190038 54 251 1.0 8.0 0.00 0.00 0.00 72 1010.6
20260502184545 54 140 1.0 4.0 0.00 0.00 0.00 68 1010.5
20260502183040 53 153 0.0 3.0 0.00 0.00 0.00 77 1010.5
20260502181540 54 44 0.0 4.0 0.00 0.00 0.00 79 1010.7
20260502163025 59 141 2.0 8.0 0.00 0.00 0.00 59 1010.5
20260502161523 58 44 1.0 6.0 0.00 0.00 0.00 61 1010.6
20260502151515 56 331 0.0 2.0 0.00 0.00 0.00 71 1011.2
20260502123051 51 360 0.0 3.0 0.00 0.00 0.00 79 1011.9
20260502121552 51 268 1.0 4.0 0.00 0.00 0.00 80 1011.8
20260502114543 48 80 0.0 2.0 0.00 0.00 0.00 83 1011.5
20260502113037 47 80 0.0 2.0 0.00 0.00 0.00 84 1011.4
20260502111533 47 80 0.0 1.0 0.00 0.00 0.00 85 1011.6
20260502110029 46 80 0.0 1.0 0.00 0.00 0.00 86 1011.4
20260502104527 45 80 0.0 1.0 0.00 0.00 0.00 87 1011.3
20260502103029 44 80 0.0 2.0 0.00 0.00 0.00 87 1011.2
20260502101535 43 79 0.0 4.0 0.00 0.00 0.00 88 1011.3
20260502091517 42 190 0.0 0.0 0.00 0.00 0.00 88 1011.1
20260502071509 43 190 0.0 0.0 0.00 0.00 0.00 84 1011.0
20260502070008 43 190 0.0 0.0 0.00 0.00 0.00 84 1011.0
20260502064508 43 190 0.0 0.0 0.00 0.00 0.00 85 1011.1
20260502063017 42 190 0.0 0.0 0.00 0.00 0.00 84 1011.2
20260502061504 42 190 0.0 0.0 0.00 0.00 0.00 84 1011.2
20260502060003 42 190 0.0 0.0 0.00 0.00 0.00 82 1011.2
20260502054501 43 190 0.0 0.0 0.00 0.00 0.00 81 1011.3
20260502053127 43 190 0.0 0.0 0.00 0.00 0.00 80 1011.3
20260502051614 43 190 0.0 0.0 0.00 0.00 0.00 80 1011.3
20260502050056 44 190 0.0 0.0 0.00 0.00 0.00 80 1011.3
20260502044555 44 190 0.0 0.0 0.00 0.00 0.00 79 1011.4
20260502043100 44 190 0.0 0.0 0.00 0.00 0.00 78 1011.5
20260502041616 44 190 0.0 0.0 0.00 0.00 0.00 78 1011.4